Location: Althorst
(53.6379°N, 10.7715°E)
Time: 21:15:49
(UTC+00:00)

Helios 1A Rocket - Pass Details

Date: 10 December 2019
Orbit: 563 x 587 km, 98.3° (Epoch: 17 January)

Event Time Altitude Azimuth Distance (km) Brightness Sun altitude
Rises 16:00:15 0° 171° (S) 2,793 6.7 -8.7°
Reaches altitude 10° 16:02:25 10° 175° (S) 1,895 5.9 -9.0°
Maximum altitude 16:06:30 63° 257° (WSW) 649 3.5 -9.5°
Drops below altitude 10° 16:10:34 10° 339° (NNW) 1,896 5.5 -10.0°
Sets 16:12:45 0° 343° (NNW) 2,795 6.3 -10.3°
